KG4QXF Weather Reports


time (UTC)temp
F
wind
direction
speed
knots
gust
knots
rain 1hr
in
rain 24hr
in
rain mn
in
humidity
%
barometer
mb
20260509162128 76 139 2.6 5.2 0.00 0.00 0.00 78 1014.8
20260509161625 76 164 0.9 5.2 0.00 0.00 0.00 77 1015.0
20260509161120 76 175 0.0 1.7 0.00 0.00 0.00 79 1015.1
20260509160616 76 122 0.9 6.1 0.00 0.00 0.00 78 1014.9
20260509160111 76 147 0.9 2.6 0.00 0.00 0.00 80 1014.7
20260509155608 77 134 2.6 3.5 0.00 0.00 0.00 79 1014.8
20260509155105 77 134 0.0 3.5 0.00 0.00 0.00 79 1014.6
20260509154600 77 80 0.9 3.5 0.00 0.00 0.00 80 1014.7
20260509154058 76 125 0.0 0.0 0.00 0.00 0.00 82 1014.8
20260509153554 75 124 1.7 1.7 0.00 0.00 0.00 83 1015.0
20260509153051 75 187 0.0 1.7 0.00 0.00 0.00 85 1014.9
20260509152548 75 173 1.7 2.6 0.00 0.00 0.00 85 1015.3
20260509152045 74 137 0.9 0.9 0.00 0.00 0.00 86 1015.4
20260509151541 74 203 0.0 2.6 0.00 0.00 0.00 87 1015.4
20260509151039 74 169 0.9 1.7 0.00 0.00 0.00 87 1015.5
20260509150536 73 180 0.0 1.7 0.00 0.00 0.00 87 1015.6
20260509150035 73 196 1.7 2.6 0.00 0.00 0.00 87 1015.5
20260509145530 74 156 0.9 2.6 0.00 0.00 0.00 87 1015.6
20260509145025 74 178 0.0 0.9 0.00 0.00 0.00 87 1015.5
20260509144522 74 142 0.9 1.7 0.00 0.00 0.00 87 1015.5
20260509144020 74 170 0.9 1.7 0.00 0.00 0.00 87 1015.6
20260509143516 74 211 0.0 0.0 0.00 0.00 0.00 87 1015.6
20260509143014 74 189 0.0 0.9 0.00 0.00 0.00 87 1015.2
20260509142510 74 278 0.0 0.0 0.00 0.00 0.00 87 1015.3
20260509142006 74 289 0.0 0.0 0.00 0.00 0.00 87 1015.2
20260509141503 74 148 1.7 1.7 0.00 0.00 0.00 87 1015.1
20260509140959 73 171 0.0 0.9 0.00 0.00 0.00 87 1014.9
20260509140455 74 142 1.7 1.7 0.00 0.00 0.00 87 1014.8
20260509135954 74 167 0.0 0.0 0.00 0.00 0.00 87 1015.0
20260509135450 73 188 0.0 0.0 0.00 0.00 0.00 87 1015.1
20260509134948 73 175 1.7 1.7 0.00 0.00 0.00 87 1015.1
20260509134445 73 148 0.0 0.0 0.00 0.00 0.00 87 1014.9
20260509133943 73 155 0.0 0.0 0.00 0.00 0.00 86 1015.0
20260509133439 73 196 0.0 0.0 0.00 0.00 0.00 86 1015.0
20260509132937 73 234 0.0 0.0 0.00 0.00 0.00 87 1015.2
20260509132435 72 186 0.0 0.0 0.00 0.00 0.00 87 1015.2
20260509131932 72 187 0.0 0.0 0.00 0.00 0.00 87 1015.2
20260509131430 72 274 0.0 0.0 0.00 0.00 0.00 87 1015.4
20260509130926 72 274 0.0 0.0 0.00 0.00 0.00 87 1015.5
20260509130421 72 273 0.0 0.0 0.00 0.00 0.00 87 1015.5
20260509125918 72 273 0.0 0.0 0.00 0.00 0.00 87 1015.6
20260509125415 72 274 0.0 0.0 0.00 0.00 0.00 86 1015.5
20260509124910 72 275 0.0 0.0 0.00 0.00 0.00 87 1015.3
20260509124408 71 276 0.0 0.0 0.00 0.00 0.00 87 1015.2
20260509123905 71 277 0.0 0.0 0.00 0.00 0.00 89 1015.5
20260509123402 70 315 0.0 0.0 0.00 0.00 0.00 89 1015.6
20260509122858 70 281 0.0 0.0 0.00 0.00 0.00 90 1015.6
20260509122355 69 233 0.0 0.0 0.00 0.00 0.00 91 1015.5
20260509121852 69 224 0.0 0.0 0.00 0.00 0.00 92 1015.3
20260509121349 69 238 0.0 0.0 0.00 0.00 0.00 93 1015.5
20260509120847 68 231 0.0 0.0 0.00 0.00 0.00 94 1015.4
20260509120345 67 253 0.0 0.0 0.00 0.00 0.00 95 1015.3
20260509115843 67 250 0.0 0.0 0.00 0.00 0.00 96 1015.3
20260509115339 66 274 0.0 0.0 0.00 0.00 0.00 97 1015.1
20260509114837 66 274 0.0 0.0 0.00 0.00 0.00 97 1015.3
20260509114336 66 274 0.0 0.0 0.00 0.00 0.00 97 1015.0
20260509113835 66 274 0.0 0.0 0.00 0.00 0.00 97 1015.0
20260509113331 65 274 0.0 0.0 0.00 0.00 0.00 97 1015.1
20260509112828 65 274 0.0 0.0 0.00 0.00 0.00 97 1014.9
20260509112325 65 274 0.0 0.0 0.00 0.00 0.00 97 1014.9
20260509111822 65 274 0.0 0.0 0.00 0.00 0.00 97 1015.0
20260509111319 65 274 0.0 0.0 0.00 0.00 0.00 97 1015.1
20260509110817 65 274 0.0 0.0 0.00 0.00 0.00 97 1014.9
20260509110313 64 274 0.0 0.0 0.00 0.00 0.00 97 1014.8
20260509105811 64 275 0.0 0.0 0.00 0.00 0.00 96 1014.8
20260509105309 64 275 0.0 0.0 0.00 0.00 0.00 96 1014.8
20260509104805 64 275 0.0 0.0 0.00 0.00 0.00 96 1014.5
20260509104302 64 275 0.0 0.0 0.00 0.00 0.00 96 1014.4
20260509103800 64 275 0.0 0.0 0.00 0.00 0.00 96 1014.5
20260509103257 64 275 0.0 0.0 0.00 0.00 0.00 96 1014.5
20260509102755 64 275 0.0 0.0 0.00 0.00 0.00 96 1014.3
20260509102252 64 275 0.0 0.0 0.00 0.00 0.00 96 1014.4
20260509101748 65 275 0.0 0.0 0.00 0.00 0.00 95 1014.5
20260509101244 65 275 0.0 0.0 0.00 0.00 0.00 95 1014.3
20260509100742 65 275 0.0 0.0 0.00 0.00 0.00 95 1014.2
20260509100240 65 275 0.0 0.0 0.00 0.00 0.00 95 1014.1
20260509095736 65 275 0.0 0.0 0.00 0.00 0.00 95 1014.5
20260509095233 65 275 0.0 0.0 0.00 0.00 0.00 95 1014.5
20260509094730 65 275 0.0 0.0 0.00 0.00 0.00 95 1014.1
20260509094227 65 275 0.0 0.0 0.00 0.00 0.00 95 1014.2
20260509093725 65 275 0.0 0.0 0.00 0.00 0.00 95 1014.4
20260509093222 65 275 0.0 0.0 0.00 0.00 0.00 94 1014.2
20260509092720 65 275 0.0 0.0 0.00 0.00 0.00 94 1014.3
20260509092218 65 275 0.0 0.0 0.00 0.00 0.00 94 1014.5
20260509091716 65 275 0.0 0.0 0.00 0.00 0.00 94 1014.7
20260509091211 65 275 0.0 0.0 0.00 0.00 0.00 94 1014.6
20260509090710 65 275 0.0 0.0 0.00 0.00 0.00 94 1014.7
20260509090206 65 277 0.0 0.0 0.00 0.00 0.00 94 1014.3
20260509085704 65 276 0.0 0.0 0.00 0.00 0.00 93 1014.8
20260509085200 65 276 0.0 0.0 0.00 0.00 0.00 93 1014.6
20260509084657 65 278 0.0 0.0 0.00 0.00 0.00 93 1014.3
20260509084154 65 278 0.0 0.0 0.00 0.00 0.00 93 1014.5
20260509083652 65 268 0.0 0.0 0.00 0.00 0.00 94 1014.7
20260509083149 65 260 0.0 0.0 0.00 0.00 0.00 94 1014.9
20260509082646 65 256 0.0 0.0 0.00 0.00 0.00 93 1014.9
20260509082142 65 256 0.0 0.0 0.00 0.00 0.00 94 1014.9
20260509081639 65 257 0.0 0.0 0.00 0.00 0.00 93 1014.7
20260509081136 65 241 0.0 0.0 0.00 0.00 0.00 93 1014.7
20260509080635 65 238 0.0 0.0 0.00 0.00 0.00 93 1015.0
20260509080132 65 238 0.0 0.0 0.00 0.00 0.00 93 1014.9
20260509075630 66 238 0.0 0.0 0.00 0.00 0.00 92 1015.0
20260509075128 66 235 0.0 0.0 0.00 0.00 0.00 92 1015.1
20260509074624 66 232 0.0 0.0 0.00 0.00 0.00 92 1015.4
20260509074120 66 232 0.0 0.0 0.00 0.00 0.00 92 1015.3
20260509073617 66 232 0.0 0.0 0.00 0.00 0.00 92 1015.0
20260509073114 66 234 0.0 0.0 0.00 0.00 0.00 92 1014.7
20260509072611 66 236 0.0 0.0 0.00 0.00 0.00 92 1014.4
20260509072107 66 267 0.0 0.0 0.00 0.00 0.00 92 1014.2
20260509071604 66 302 0.0 0.0 0.00 0.00 0.00 91 1014.6
20260509071101 66 302 0.0 0.0 0.00 0.00 0.00 91 1014.6
20260509070559 67 303 0.0 0.0 0.00 0.00 0.00 91 1014.9
20260509070055 67 303 0.0 0.0 0.00 0.00 0.00 90 1014.9
20260509065550 67 56 0.0 0.0 0.00 0.00 0.00 90 1015.0
20260509065046 67 37 0.0 0.0 0.00 0.00 0.00 89 1015.0
20260509064544 67 304 0.0 0.0 0.00 0.00 0.00 89 1015.2
20260509064042 68 272 0.0 0.9 0.00 0.00 0.00 89 1015.5
20260509063537 68 255 0.0 0.0 0.00 0.00 0.00 89 1015.8
20260509063035 67 302 0.0 0.0 0.00 0.00 0.00 89 1015.6
20260509062532 67 249 0.0 0.0 0.00 0.00 0.00 88 1015.5
20260509062030 67 316 0.0 0.0 0.00 0.00 0.00 88 1015.0
20260509061526 67 252 0.0 0.0 0.00 0.00 0.00 88 1015.3
20260509061024 67 270 0.0 0.0 0.00 0.00 0.00 88 1015.6
20260509060521 67 270 0.0 0.0 0.00 0.00 0.00 87 1015.8
20260509060017 67 253 0.0 0.0 0.00 0.00 0.00 87 1016.1
20260509055512 67 212 0.0 0.0 0.00 0.00 0.00 88 1015.9
20260509055009 66 212 0.0 0.0 0.00 0.00 0.00 88 1015.6
20260509054505 66 213 0.0 0.0 0.00 0.00 0.00 89 1015.5
20260509054003 66 274 0.0 0.0 0.00 0.00 0.00 89 1015.8
20260509053501 66 351 0.0 0.0 0.00 0.00 0.00 89 1015.7
20260509052958 66 322 0.0 0.0 0.00 0.00 0.00 89 1015.8
20260509052456 66 312 0.0 0.0 0.00 0.00 0.00 88 1016.3
20260509051954 66 310 0.0 0.0 0.00 0.00 0.00 88 1016.5
20260509051451 66 302 0.0 0.0 0.00 0.00 0.00 87 1016.8
20260509050948 66 245 0.0 0.0 0.00 0.00 0.00 87 1017.2
20260509050444 66 245 0.0 0.0 0.00 0.00 0.00 87 1017.0
20260509045941 66 245 0.0 0.0 0.00 0.00 0.00 87 1017.0
20260509045438 66 245 0.0 0.0 0.00 0.00 0.00 87 1017.1
20260509044935 66 245 0.0 0.0 0.00 0.00 0.00 87 1017.1
20260509044433 66 245 0.0 0.0 0.00 0.00 0.00 86 1017.3
20260509043930 66 245 0.0 0.0 0.00 0.00 0.00 87 1016.8
20260509043426 65 245 0.0 0.9 0.00 0.00 0.00 88 1016.6
20260509042921 65 270 0.0 0.0 0.00 0.00 0.00 88 1016.3
20260509042419 65 270 0.0 0.0 0.00 0.00 0.00 88 1016.8
20260509041915 65 270 0.0 0.0 0.00 0.00 0.00 88 1017.1
20260509041412 65 270 0.0 0.0 0.00 0.00 0.00 88 1017.4
20260509040910 65 270 0.0 0.0 0.00 0.00 0.00 87 1017.4
20260509040408 65 270 0.0 0.0 0.00 0.00 0.00 87 1017.5
20260509035904 65 270 0.0 0.0 0.00 0.00 0.00 87 1017.6
20260509035401 65 270 0.0 0.0 0.00 0.00 0.00 87 1017.8
20260509034857 65 270 0.0 0.0 0.00 0.00 0.00 87 1017.7
20260509034355 65 270 0.0 0.0 0.00 0.00 0.00 87 1017.6
20260509033852 65 270 0.0 0.0 0.00 0.00 0.00 87 1017.8
20260509033350 65 270 0.0 0.0 0.00 0.00 0.00 87 1017.7
20260509032846 65 270 0.0 0.0 0.00 0.00 0.00 86 1017.7
20260509032343 65 270 0.0 0.0 0.00 0.00 0.00 86 1017.6
20260509031842 65 270 0.0 0.0 0.00 0.00 0.00 86 1017.7
20260509031338 65 270 0.0 0.0 0.00 0.00 0.00 86 1017.8
20260509030836 65 270 0.0 0.0 0.00 0.00 0.00 86 1017.8
20260509030334 65 270 0.0 0.0 0.00 0.00 0.00 85 1017.9
20260509025830 65 270 0.0 0.0 0.00 0.00 0.00 85 1018.1
20260509025325 65 270 0.0 0.0 0.00 0.00 0.00 85 1018.0
20260509024821 65 283 0.0 0.0 0.00 0.00 0.00 85 1017.8
20260509024318 65 283 0.0 0.0 0.00 0.00 0.00 85 1017.7
20260509023815 65 283 0.0 0.0 0.00 0.00 0.00 85 1017.5
20260509023312 65 283 0.0 0.0 0.00 0.00 0.00 85 1017.6
20260509022808 65 283 0.0 0.0 0.00 0.00 0.00 85 1017.4
20260509022307 65 283 0.0 0.0 0.00 0.00 0.00 85 1017.5
20260509021803 65 283 0.0 0.0 0.00 0.00 0.00 85 1017.6
20260509021300 65 283 0.0 0.0 0.00 0.00 0.00 84 1017.5
20260509020757 65 283 0.0 0.0 0.00 0.00 0.00 84 1017.5
20260509020255 65 283 0.0 0.0 0.00 0.00 0.00 84 1017.4
20260509015753 65 283 0.0 0.0 0.00 0.00 0.00 84 1017.6
20260509015251 65 283 0.0 0.0 0.00 0.00 0.00 83 1017.6
20260509014747 65 284 0.0 0.0 0.00 0.00 0.00 84 1017.4
20260509014244 65 284 0.0 0.0 0.00 0.00 0.00 83 1017.4
20260509013735 65 283 0.0 0.0 0.00 0.00 0.00 83 1017.3
20260509013231 65 284 0.0 0.0 0.00 0.00 0.00 83 1017.3
20260509012728 65 288 0.0 0.0 0.00 0.00 0.00 83 1017.2
20260509012224 65 288 0.0 0.0 0.00 0.00 0.00 83 1017.4
20260509011722 65 289 0.0 0.0 0.00 0.00 0.00 82 1017.2
20260509011219 65 301 0.0 0.0 0.00 0.00 0.00 82 1017.3
20260509010716 66 301 0.0 0.0 0.00 0.00 0.00 82 1017.4
20260509010207 66 302 0.0 0.0 0.00 0.00 0.00 82 1017.5
20260509005705 66 359 0.0 0.0 0.00 0.00 0.00 81 1017.4
20260509005202 66 0 0.0 0.0 0.00 0.00 0.00 81 1017.1
20260509004656 66 139 0.0 0.0 0.00 0.00 0.00 81 1017.2
20260509004154 66 301 0.0 0.0 0.00 0.00 0.00 81 1017.1
20260509003653 66 301 0.0 0.0 0.00 0.00 0.00 80 1017.0
20260509003150 66 301 0.0 0.0 0.00 0.00 0.00 80 1017.0
20260509002647 66 302 0.0 0.0 0.00 0.00 0.00 80 1016.8
20260509002144 66 302 0.0 0.0 0.00 0.00 0.00 79 1016.7
20260509001642 66 307 0.0 0.9 0.00 0.00 0.00 79 1016.9
20260509001137 66 23 0.0 0.0 0.00 0.00 0.00 79 1017.1
20260509000636 66 314 0.0 0.0 0.00 0.00 0.00 79 1017.1
20260509000132 66 324 0.0 0.0 0.00 0.00 0.00 79 1016.8
20260508235630 66 32 0.9 0.9 0.00 0.00 0.00 79 1016.7
20260508235126 66 304 0.0 0.0 0.00 0.00 0.00 78 1016.8
20260508234623 66 289 0.0 0.0 0.00 0.00 0.00 79 1016.6
20260508234120 66 321 0.0 0.0 0.00 0.00 0.00 78 1016.6
20260508233619 66 293 0.0 0.0 0.00 0.00 0.00 78 1017.0
20260508233116 66 305 0.0 0.0 0.00 0.00 0.00 78 1016.9
20260508232613 66 315 0.0 0.0 0.00 0.00 0.00 78 1016.8
20260508232110 66 273 0.0 0.0 0.00 0.00 0.00 78 1016.9
20260508231608 66 340 0.0 0.0 0.00 0.00 0.00 78 1017.0
20260508231104 67 281 0.0 0.0 0.00 0.00 0.00 77 1016.9
20260508230601 67 281 0.0 0.0 0.00 0.00 0.00 77 1017.1
20260508230057 67 297 0.0 0.0 0.00 0.00 0.00 77 1016.8
20260508225555 67 304 0.0 0.9 0.00 0.00 0.00 76 1016.8
20260508225052 67 290 0.0 0.0 0.00 0.00 0.00 76 1016.6
20260508224550 67 336 0.0 0.0 0.00 0.00 0.00 77 1016.6
20260508224047 67 345 0.0 0.0 0.00 0.00 0.00 77 1016.6
20260508223544 67 315 0.0 0.0 0.00 0.00 0.00 77 1016.7
20260508223041 67 312 0.0 0.0 0.00 0.00 0.00 76 1016.6
20260508222539 67 292 0.0 0.9 0.00 0.00 0.00 76 1016.6
20260508222036 67 7 0.0 1.7 0.00 0.00 0.00 74 1016.7
20260508221532 67 316 0.0 0.9 0.00 0.00 0.00 74 1017.1
20260508221027 67 258 0.0 0.0 0.00 0.00 0.00 74 1016.8
20260508220525 67 301 0.0 0.0 0.00 0.00 0.00 74 1016.7
20260508220021 67 338 0.0 0.9 0.00 0.00 0.00 73 1016.8
20260508215518 67 294 0.0 0.9 0.00 0.00 0.00 72 1016.9
20260508215015 68 14 1.7 1.7 0.00 0.00 0.00 72 1016.8
20260508214512 68 304 0.9 0.9 0.00 0.00 0.00 73 1016.8
20260508214008 68 304 0.0 1.7 0.00 0.00 0.00 73 1016.8
20260508213506 68 227 0.9 1.7 0.00 0.00 0.00 72 1017.0
20260508213001 68 24 1.7 1.7 0.00 0.00 0.00 72 1017.0
20260508212458 68 328 0.0 0.9 0.00 0.00 0.00 72 1017.1
20260508211954 68 340 0.0 0.9 0.00 0.00 0.00 72 1017.2
20260508211450 68 354 0.0 1.7 0.00 0.00 0.00 73 1017.0
20260508210947 68 50 0.9 0.9 0.00 0.00 0.00 72 1016.8
20260508210443 68 293 0.0 0.0 0.00 0.00 0.00 71 1016.8
20260508205939 68 292 0.0 0.9 0.00 0.00 0.00 72 1016.7
20260508205437 68 335 0.9 1.7 0.00 0.00 0.00 70 1016.8
20260508204933 68 311 0.9 1.7 0.00 0.00 0.00 71 1017.0
20260508204431 68 318 0.0 1.7 0.00 0.00 0.00 70 1016.9
20260508203926 68 34 0.0 1.7 0.00 0.00 0.00 71 1016.7
20260508203422 68 39 0.9 2.6 0.00 0.00 0.00 70 1016.8
20260508202918 69 318 0.0 1.7 0.00 0.00 0.00 69 1016.8
20260508202416 69 88 0.9 2.6 0.00 0.00 0.00 69 1016.7
20260508201913 69 302 0.0 2.6 0.00 0.00 0.00 70 1017.1
20260508201409 70 6 0.9 3.5 0.00 0.00 0.00 67 1017.1
20260508200906 70 312 0.0 2.6 0.00 0.00 0.00 67 1017.2
20260508200403 70 30 0.9 1.7 0.00 0.00 0.00 67 1017.5
20260508195858 70 169 0.9 2.6 0.00 0.00 0.00 67 1017.3
20260508195355 70 67 3.5 3.5 0.00 0.00 0.00 66 1017.4
20260508194851 71 323 0.0 2.6 0.00 0.00 0.00 66 1017.6
20260508194349 72 16 0.9 1.7 0.00 0.00 0.00 63 1017.4
20260508193846 71 308 0.9 3.5 0.00 0.00 0.00 66 1017.4
20260508193342 71 324 1.7 2.6 0.00 0.00 0.00 64 1017.2
20260508192838 71 315 1.7 2.6 0.00 0.00 0.00 66 1017.5
20260508192336 70 58 0.9 2.6 0.00 0.00 0.00 66 1017.5
20260508191833 70 53 1.7 1.7 0.00 0.00 0.00 67 1017.6
20260508191330 71 358 0.0 2.6 0.00 0.00 0.00 65 1017.5
20260508190827 70 330 0.9 2.6 0.00 0.00 0.00 66 1017.7
20260508190324 71 61 0.9 3.5 0.00 0.00 0.00 63 1017.6
20260508185820 72 305 0.9 3.5 0.00 0.00 0.00 63 1017.9
20260508185318 72 17 0.9 3.5 0.00 0.00 0.00 63 1017.8
20260508184815 72 11 1.7 3.5 0.00 0.00 0.00 61 1017.9
20260508184311 72 264 0.0 2.6 0.00 0.00 0.00 61 1017.9
20260508183808 71 66 0.9 3.5 0.00 0.00 0.00 65 1017.8
20260508183305 72 52 0.9 3.5 0.00 0.00 0.00 62 1017.7
20260508182755 72 313 0.9 5.2 0.00 0.00 0.00 63 1017.7
20260508182252 73 18 2.6 5.2 0.00 0.00 0.00 60 1018.0
20260508181748 73 325 1.7 5.2 0.00 0.00 0.00 58 1018.0
20260508181245 73 212 1.7 2.6 0.00 0.00 0.00 59 1018.1
20260508180742 73 291 0.9 1.7 0.00 0.00 0.00 60 1018.2
20260508180239 73 237 0.9 3.5 0.00 0.00 0.00 59 1018.2
20260508175735 73 24 1.7 5.2 0.00 0.00 0.00 59 1018.3
20260508175231 74 333 2.6 3.5 0.00 0.00 0.00 57 1018.1
20260508174730 74 8 0.9 2.6 0.00 0.00 0.00 56 1018.3
20260508174227 73 334 0.9 1.7 0.00 0.00 0.00 58 1018.2
20260508173722 73 23 3.5 3.5 0.00 0.00 0.00 59 1018.3
20260508173219 73 15 1.7 3.5 0.00 0.00 0.00 57 1018.5
20260508172716 74 330 0.0 2.6 0.00 0.00 0.00 58 1018.5
20260508172213 74 257 0.9 2.6 0.00 0.00 0.00 58 1018.3
20260508171709 74 21 0.9 3.5 0.00 0.00 0.00 59 1018.4
20260508171206 74 34 2.6 3.5 0.00 0.00 0.00 56 1018.6
20260508170703 73 47 2.6 6.1 0.00 0.00 0.00 59 1018.5
20260508170201 73 336 1.7 2.6 0.00 0.00 0.00 60 1018.4
20260508165657 74 325 2.6 3.5 0.00 0.00 0.00 57 1018.3
20260508165154 74 341 1.7 3.5 0.00 0.00 0.00 55 1018.4
20260508164651 73 308 1.7 3.5 0.00 0.00 0.00 57 1018.6
20260508164147 73 320 0.9 2.6 0.00 0.00 0.00 55 1018.8
20260508163645 73 344 2.6 2.6 0.00 0.00 0.00 55 1018.5
20260508163143 74 262 0.0 2.6 0.00 0.00 0.00 55 1018.8
20260508162638 73 175 0.9 2.6 0.00 0.00 0.00 52 1018.8